"Pseudo-MPEC" for C9HUKV2

Created 2023 Sep 20 11:22:16 UT using Find_Orb

Click here for an explanation of pseudo-MPECs

 
 Astrometry: 
     C9HUKV2*1C2023 09 19.26540000 12 43.200+02 24 09.68   ~9J77 19.25GVNEOCPG96
     C9HUKV2 1C2023 09 19.27060300 12 45.050+02 19 47.86   ~9J77 18.61GVNEOCPG96
     C9HUKV2 1C2023 09 19.27581600 12 46.818+02 15 28.22   ~9J77 18.81GVNEOCPG96
     C9HUKV2 mC2023 09 19.29384700 12 52.614+02 01 08.44   ~9J7M 19.01GVNEOCPI52
     C9HUKV2 mC2023 09 19.29404000 12 52.675+02 00 59.29   ~9J7M 18.98GVNEOCPI52
     C9HUKV2 mC2023 09 19.29423600 12 52.722+02 00 50.22   ~9J7M 18.99GVNEOCPI52
     C9HUKV2 mC2023 09 19.42693600 13 28.729+00 34 32.56   ~9JAb 18.98GVNEOCPI52
     C9HUKV2 mC2023 09 19.42711900 13 28.780+00 34 26.65   ~9JAb 19.20GVNEOCPI52
     C9HUKV2 mC2023 09 19.42730100 13 28.844+00 34 20.75   ~9JAb 19.37GVNEOCPI52
     C9HUKV2 mC2023 09 19.42748600 13 28.880+00 34 14.74   ~9JAb 19.61GVNEOCPI52
     C9HUKV2 KB2023 09 19.88430000 17 00.75 -02 06 57.8    ~9JLq 20.6 GVNEOCPI93
     C9HUKV2 KB2023 09 19.89092200 17 01.20 -02 08 26.3    ~9JLq 20.2 GVNEOCPI93
     C9HUKV2 1C2023 09 19.94472 00 16 56.64 -02 20 38.3    ~9JN7 21.0 VXNEOCP033
     C9HUKV2 1C2023 09 19.94558 00 16 56.66 -02 20 48.7    ~9JN7 20.6 VXNEOCP033
     C9HUKV2 1C2023 09 19.94645 00 16 56.67 -02 20 59.4    ~9JN7 20.4 VXNEOCP033
     C9HUKV2 KC2023 09 20.560$JXxJx12k64tAstrometryYa5P1'$pTg1;redacted;9k#O'858
     C9HUKV2 KC2023 09 203-,E`0CqBha0Af#0pi7tclick9EJ`/;=^wPF]hereO,mL#iofory858
     C9HUKV2 KC2023 09 201_@ioexplanation62,eK+'vE6kbOhluKu[rH8aqV;([q1q)r\UW858
     C9HUKV2 KC2023 09 20.37608900 17 46.025-03 24 43.74   ~9K9M 21.10GVNEOCPV06
     C9HUKV2 KC2023 09 20.37701500 17 45.996-03 24 50.08   ~9K9M 21.06GVNEOCPV06
     C9HUKV2 KC2023 09 20.37793600 17 45.956-03 24 56.30   ~9K9M 20.86GVNEOCPV06
     C9HUKV2 KC2023 09 20.37886000 17 45.924-03 25 02.68   ~9K9M 20.98GVNEOCPV06

Station data:
(033) Karl Schwarzschild Observatory, Tautenburg  (N50.980137 E11.711240)
   Germany.  Observer B. Stecklum. 1.34-m f/3 Schmidt + CCD.
(858) Tebbutt Observatory, Edgewood  (N35.093869 W106.220000)  US/New Mexico.
    Observer F. B. Zoltowski. 0.16-m refractor + CCD0.51-m Schmidt-Cassegrain
   + CCD.
(G96) Mt. Lemmon Survey  (N32.442751 W110.788720)  US/Arizona.  Observer E.
   J. Christensen. 1.5-m reflector + 10K CCD.
(I52) Steward Observatory, Mt. Lemmon Station  (N32.442544 W110.788920)
   US/Arizona.  Observers T. A. Pruyne, B. M. Africano, E. J. Christensen, G.
   A. Farneth, D. C. Fuls, A. R. Gibbs, A. D. Grauer, H. Gröller, J. A.
   Johnson, R. A. Kowalski, S. M. Larson, G. J. Leonard, D. Rankin, R. L.
   Seaman, F. C. Shelly, K. W. Wierzchoś. 1.0-m prime focus + CCD.
(I93) St Pardon de Conques  (N44.558708 W0.203000)  France.  Observers F.
   Losse, W. D'Anna. Measurer F. Losse. 0.40-m f/3.7 reflector + CCD.
(V06) Catalina Sky Survey-Kuiper  (N32.416844 W110.732550)  US/Arizona.
   Observers T. A. Pruyne, B. M. Africano, E. J. Christensen, G. A. Farneth,
   D. C. Fuls, A. R. Gibbs, A. D. Grauer, H. Gröller, J. A. Johnson, R. A.
   Kowalski, S. M. Larson, G. J. Leonard, D. Rankin, R. L. Seaman, F. C.
   Shelly, K. W. Wierzchoś. 1.55-m reflector + CCD.

Orbital elements:  C9HUKV2
   Perihelion 2023 Aug 3.78537 +/- 0.00811 TT = 18:50:56 (JD 2460160.28537)
Epoch 2023 Sep 20.0 TT = JDT 2460207.5   Earth MOID: 0.0011   Ve: 0.0562
M  15.98705851 +/- 0.020            Ma: 0.0393                   AutoNEOCP
n   0.33860393 +/- 0.000373         Peri.  103.23612 +/- 0.00016
a   2.03864394 +/- 0.0015           Node   175.89509 +/- 0.000018
e   0.6548700 +/- 0.000293          Incl.    4.83371 +/- 0.0017
P   2.91                   H 29.29  G  0.15   U  7.4
q 0.70359715 +/- 8.13e-5    Q 3.37369073 +/- 0.00308      (J2000 ecliptic)
From 22 observations 2023 Sept. 19-20 (26.7 hr); mean residual 0".42
Residuals in arcseconds: 
230919 G96  .09-  1.7+    230919 I52  .14+  .21-    230920 858  .04-  .57-    
230919 G96  .21+  .79+    230919 I52  .10-  .18-    230920 858  .42+  .31-    
230919 G96  .03+  1.4-    230919 I93  .30-  .33+    230920 V06  .09-  .14-    
230919 I52  .02+  .28-    230919 I93  .07+  .27+    230920 V06  .04+  .06-    
230919 I52  .05+  .45-    230919 033  .07+  .03+    230920 V06  .00   .10+    
230919 I52  .15-  .41-    230919 033  .05-  .08+    230920 V06  .07+  .11+    
230919 I52  .05-  .34-    230919 033  .32-  .06-    
230919 I52  .05-  .26-    230920 858  .10+  .47+    

Ephemerides (geocentric):
Date (UTC) HH   RA             Dec           delta  r     elong  mag " sig PA
---- --------  ------------   ------------  ------ ------ -----  --- --------
2023 09 20 11  00 18 03.510   -03 29 31.28  .01955 1.0238 172.3 21.3 .096 177
2023 09 20 12  00 18 07.707   -03 33 56.28  .01999 1.0242 172.3 21.4 .090 178
2023 09 20 13  00 18 11.722   -03 38 09.80  .02043 1.0246 172.3 21.4 .085 179
2023 09 20 14  00 18 15.566   -03 42 12.58  .02087 1.0251 172.3 21.5 .080   0
2023 09 20 15  00 18 19.251   -03 46 05.28  .02131 1.0255 172.3 21.5 .074   1
2023 09 20 16  00 18 22.786   -03 49 48.51  .02175 1.0259 172.3 21.6 .069   2
2023 09 20 17  00 18 26.179   -03 53 22.84  .02220 1.0263 172.3 21.6 .065   4
2023 09 20 18  00 18 29.440   -03 56 48.78  .02264 1.0268 172.3 21.7 .060   5
2023 09 20 19  00 18 32.574   -04 00 06.82  .02308 1.0272 172.3 21.7 .056   7
2023 09 20 20  00 18 35.591   -04 03 17.39  .02352 1.0276 172.3 21.7 .051   9
2023 09 20 21  00 18 38.495   -04 06 20.92  .02396 1.0280 172.3 21.8 .047  11
2023 09 20 22  00 18 41.293   -04 09 17.77  .02440 1.0285 172.3 21.8 .043  14
2023 09 20 23  00 18 43.991   -04 12 08.31  .02485 1.0289 172.3 21.9 .039  17
2023 09 21 00  00 18 46.594   -04 14 52.87  .02529 1.0293 172.3 21.9 .036  20
2023 09 21 01  00 18 49.107   -04 17 31.75  .02573 1.0297 172.3 21.9 .033  25
2023 09 21 02  00 18 51.533   -04 20 05.23  .02617 1.0302 172.3 22.0 .030  30
2023 09 21 03  00 18 53.879   -04 22 33.60  .02661 1.0306 172.3 22.0 .027  35
2023 09 21 04  00 18 56.146   -04 24 57.09  .02705 1.0310 172.3 22.1 .025  42
2023 09 21 05  00 18 58.340   -04 27 15.94  .02750 1.0315 172.3 22.1 .023  50
2023 09 21 06  00 19 00.463   -04 29 30.37  .02794 1.0319 172.3 22.1 .022  59
2023 09 21 07  00 19 02.519   -04 31 40.58  .02838 1.0323 172.3 22.2 .021  68
2023 09 21 08  00 19 04.511   -04 33 46.78  .02882 1.0327 172.3 22.2 .021  77
2023 09 21 09  00 19 06.442   -04 35 49.13  .02926 1.0332 172.3 22.2 .022  86
2023 09 21 10  00 19 08.315   -04 37 47.81  .02971 1.0336 172.3 22.3 .023  94
2023 09 21 11  00 19 10.131   -04 39 42.99  .03015 1.0340 172.3 22.3 .024 101
2023 09 21 12  00 19 11.894   -04 41 34.80  .03059 1.0344 172.3 22.3 .026 108
2023 09 21 13  00 19 13.605   -04 43 23.40  .03103 1.0349 172.3 22.4 .027 113
2023 09 21 14  00 19 15.268   -04 45 08.92  .03148 1.0353 172.3 22.4 .029 117
2023 09 21 15  00 19 16.883   -04 46 51.49  .03192 1.0357 172.3 22.4 .032 121
2023 09 21 16  00 19 18.453   -04 48 31.22  .03236 1.0361 172.3 22.5 .034 124
2023 09 21 17  00 19 19.979   -04 50 08.24  .03280 1.0366 172.3 22.5 .036 127
2023 09 21 18  00 19 21.464   -04 51 42.64  .03325 1.0370 172.3 22.5 .038 130
2023 09 21 19  00 19 22.909   -04 53 14.53  .03369 1.0374 172.3 22.5 .040 132
2023 09 21 20  00 19 24.315   -04 54 44.02  .03413 1.0379 172.3 22.6 .043 133
2023 09 21 21  00 19 25.684   -04 56 11.18  .03457 1.0383 172.3 22.6 .045 135
2023 09 21 22  00 19 27.017   -04 57 36.11  .03502 1.0387 172.3 22.6 .047 136
2023 09 21 23  00 19 28.316   -04 58 58.89  .03546 1.0391 172.3 22.7 .049 138
2023 09 22 00  00 19 29.582   -05 00 19.60  .03590 1.0396 172.3 22.7 .052 139
2023 09 22 01  00 19 30.816   -05 01 38.31  .03634 1.0400 172.3 22.7 .054 140
2023 09 22 02  00 19 32.019   -05 02 55.10  .03679 1.0404 172.3 22.7 .056 141
2023 09 22 03  00 19 33.192   -05 04 10.03  .03723 1.0408 172.3 22.8 .058 141
2023 09 22 04  00 19 34.337   -05 05 23.17  .03767 1.0413 172.3 22.8 .060 142
2023 09 22 05  00 19 35.454   -05 06 34.58  .03811 1.0417 172.3 22.8 .062 143
2023 09 22 06  00 19 36.544   -05 07 44.32  .03856 1.0421 172.3 22.8 .064 143
2023 09 22 07  00 19 37.609   -05 08 52.45  .03900 1.0426 172.4 22.9 .066 144
2023 09 22 08  00 19 38.648   -05 09 59.01  .03944 1.0430 172.4 22.9 .068 144
2023 09 22 09  00 19 39.663   -05 11 04.07  .03989 1.0434 172.4 22.9 .070 145
2023 09 22 10  00 19 40.655   -05 12 07.67  .04033 1.0438 172.4 22.9 .072 145